GFSGL_2pvu_pres_084.txt.gz
Presure
136 134 146 127 139 134 139 142 139 137 143 150 149 152 154 157 162 162 154 173 176 119 154 151 152 168 208 174 174 160 202 216 166 160 150 158 180 179 171 160 164 180 161
134 167 173 128 134 132 139 136 148 143 140 150 148 149 152 155 143 158 173 154 137 166 144 163 155 136 188 214 152 149 159 158 166 158 161 159 179 164 180 137 161 138 161
136 155 152 131 156 148 141 153 141 145 141 149 155 142 143 172 145 144 162 154 170 134 128 124 158 159 124 221 222 184 168 152 144 133 154 149 157 157 170 154 147 135 150
145 156 171 188 159 138 135 145 169 134 154 158 143 153 157 140 149 152 160 159 164 169 137 118 137 152 118 141 204 226 176 205 152 153 135 145 152 174 165 155 146 142 161
144 153 131 120 135 136 174 138 145 134 142 165 140 158 139 159 150 148 147 162 153 170 174 192 120 146 147 126 163 210 134 150 166 134 168 160 154 170 156 175 146 155 149
145 141 132 155 126 126 147 176 158 136 144 135 142 144 138 146 152 144 152 146 160 159 167 178 203 147 159 130 124 117 160 124 160 152 143 164 148 162 181 158 131 145 157
143 144 153 124 144 152 169 160 147 133 170 158 145 135 150 135 141 141 152 163 175 191 163 169 157 179 164 129 137 124 111 224 231 167 162 168 153 157 177 176 147 151 145
117 131 131 133 149 153 138 141 139 167 123 132 131 137 144 133 135 134 137 140 145 150 166 167 174 192 146 163 138 131 123 119 133 194 143 124 159 164 169 168 149 146 145
145 146 136 143 153 125 132 143 137 145 123 133 144 152 135 134 135 137 139 160 148 142 179 158 169 189 187 171 134 136 142 159 146 152 188 136 131 147 175 180 155 131 151
152 145 136 153 121 124 123 123 119 130 131 144 140 135 142 137 134 136 136 139 135 132 145 163 160 180 184 190 140 139 135 138 184 131 161 176 151 127 144 181 150 150 149
126 147 126 145 127 109 131 123 125 132 128 128 134 156 134 130 133 160 138 137 143 134 149 155 170 159 188 175 144 154 139 135 121 132 127 164 156 159 176 184 148 151 138
172 164 157 159 136 156 148 149 125 155 131 139 132 155 169 160 148 133 157 136 138 143 147 140 144 170 176 179 197 147 143 138 141 117 140 197 144 163 164 123 145 138 149
230 203 180 162 163 160 157 126 162 156 131 130 164 134 126 132 151 129 141 147 138 139 135 140 137 151 170 177 182 200 149 150 135 140 143 142 140 124 175 180 133 161 126
171 203 222 204 185 172 169 164 167 169 177 140 169 143 174 164 171 131 151 160 159 133 133 151 142 138 151 168 184 190 198 149 139 149 142 133 148 135 133 164 161 153 134
154 160 170 197 224 210 195 187 183 173 167 159 169 170 149 148 162 146 152 153 151 170 130 139 198 144 160 156 169 186 192 196 151 137 148 143 148 152 147 125 161 141 144
139 156 154 160 170 188 201 218 215 209 199 200 199 161 198 147 144 179 150 159 149 195 192 189 135 131 141 170 176 164 191 212 180 149 142 151 142 137 146 146 142 157 181
185 144 159 151 167 157 165 177 183 198 216 213 208 210 212 216 147 219 154 143 153 151 198 192 128 133 141 152 145 153 173 198 200 166 131 155 141 137 145 142 133 136 118
160 271 164 132 153 147 154 152 159 167 177 183 195 213 205 202 201 202 205 202 147 215 160 162 123 160 130 140 199 166 152 172 209 177 154 134 117 140 143 143 132 157 136
255 207 146 276 135 173 144 150 143 147 162 165 172 181 185 188 190 194 201 203 204 192 209 206 200 196 191 199 136 171 176 168 169 190 200 179 148 145 152 143 141 137 140
259 264 158 270 175 187 178 152 155 150 148 141 143 169 173 181 189 197 193 191 198 197 191 188 201 122 128 134 135 124 212 165 136 144 191 169 147 142 136 155 142 182 127
292 295 268 303 276 277 276 279 265 170 167 167 158 152 151 152 144 187 191 186 193 189 189 192 197 197 186 194 190 155 124 126 137 164 130 185 172 157 173 173 180 153 176
275 283 287 292 300 304 310 314 327 310 279 201 165 153 151 162 154 149 169 184 178 157 179 164 179 147 188 183 127 188 187 113 124 142 178 154 175 177 179 154 163 152 151
264 263 264 269 274 279 284 291 297 304 310 300 292 241 180 160 155 161 156 151 154 152 151 145 173 143 142 142 157 159 178 181 196 159 155 162 169 184 160 185 175 162 166
265 265 266 265 265 267 271 275 281 286 293 301 307 309 288 307 165 158 157 155 171 155 148 159 155 152 150 147 148 149 153 144 143 169 159 209 176 160 154 159 162 157 191
291 293 298 299 298 285 277 277 276 279 286 292 299 303 309 322 329 328 256 172 168 162 159 179 161 146 149 136 153 140 156 155 151 151 155 150 199 198 170 164 149 151 154
309 310 314 318 323 329 336 352 345 361 398 412 429 437 442 441 440 445 398 389 248 164 166 147 155 151 154 155 156 156 157 155 151 160 161 157 158 137 185 198 178 165 161

GFSGL_2pvu_pres_087.txt.gz
Presure
139 136 129 129 143 147 141 146 140 145 150 152 138 150 140 148 155 157 155 155 156 171 171 169 153 159 214 180 194 152 205 155 152 174 178 185 157 160 142 158 134 154 164
156 133 141 147 150 168 132 133 143 161 163 156 151 157 158 138 140 164 151 159 149 118 113 178 185 120 180 210 183 208 156 134 136 143 180 186 166 134 159 155 146 166 158
126 146 150 128 132 142 158 146 143 145 145 160 146 152 166 151 153 144 162 154 159 152 141 138 190 138 121 181 196 167 216 147 157 145 150 171 190 167 134 128 158 169 163
179 176 150 142 158 168 124 161 166 137 169 135 169 157 165 149 161 155 152 156 151 161 154 165 142 185 120 120 197 139 153 170 149 153 143 164 174 172 152 161 158 157 162
138 150 123 156 138 134 162 169 133 139 156 135 138 177 153 139 154 150 159 142 160 152 180 154 159 165 202 119 141 200 182 152 159 143 149 140 171 152 160 155 163 158 166
137 146 156 139 149 121 136 122 130 148 156 173 158 148 154 138 168 152 147 150 143 156 158 168 161 164 170 126 122 111 131 163 194 174 158 167 153 168 154 160 160 157 151
137 136 158 131 137 125 148 125 159 156 161 131 151 141 156 129 145 139 138 140 143 156 141 146 156 155 167 161 139 126 119 109 194 156 166 159 155 151 180 160 136 152 166
141 142 136 103 126 146 125 155 166 137 135 123 165 158 156 133 139 138 134 137 131 146 142 146 151 155 153 167 169 164 134 123 176 209 178 150 160 156 167 164 168 152 153
125 140 127 139 138 150 126 173 121 156 160 127 145 141 172 131 135 148 156 139 133 139 135 138 153 154 150 153 170 176 136 143 125 207 203 126 142 161 160 173 163 154 158
153 161 134 145 147 154 136 143 128 146 162 149 131 135 132 135 148 150 145 138 136 154 143 132 139 158 155 151 159 172 190 135 141 131 140 193 152 149 167 169 179 164 151
169 164 164 162 141 156 159 158 150 159 162 131 136 148 146 158 147 143 131 133 133 151 159 141 138 142 136 155 166 161 184 149 150 118 111 128 169 163 156 172 159 145 152
176 174 161 142 142 142 137 146 157 142 142 140 162 131 122 133 123 131 133 136 132 150 145 139 135 156 133 136 163 159 171 156 172 141 139 128 129 182 159 172 155 163 140
215 194 166 173 173 170 171 166 138 166 139 125 156 124 165 142 153 127 137 150 130 166 131 137 142 141 148 141 131 143 155 179 185 193 140 140 140 106 135 182 133 174 124
185 150 153 195 188 179 178 174 170 169 169 165 120 128 129 136 141 171 126 115 125 180 155 133 163 153 135 134 146 139 144 156 176 186 183 145 143 143 144 194 175 172 118
143 153 172 179 159 207 201 197 180 172 173 175 175 158 175 179 149 129 133 143 146 134 156 149 143 167 148 129 134 164 142 145 156 168 187 214 146 147 148 150 162 161 168
137 147 134 147 152 164 161 172 204 203 197 193 190 189 188 188 189 191 177 173 137 143 177 151 142 165 153 206 146 133 202 169 164 148 164 189 221 138 141 127 137 157 145
154 200 154 168 143 146 126 153 161 161 162 200 201 201 194 195 191 194 154 197 198 195 151 143 145 148 153 150 223 133 130 136 134 145 189 163 191 195 140 139 147 127 149
230 230 217 206 204 132 123 136 140 144 151 154 157 161 166 195 202 201 200 198 202 222 227 145 149 147 151 149 230 154 203 133 188 141 152 149 169 190 221 148 117 143 142
225 223 226 99 231 232 179 142 140 140 140 141 150 157 164 163 168 170 174 203 200 188 182 215 198 152 154 182 174 170 187 205 163 142 144 167 150 94 193 185 132 134 151
221 215 218 214 214 218 228 234 266 161 140 134 129 134 139 142 152 168 174 163 168 169 180 213 167 161 152 201 192 200 131 210 142 192 196 142 182 148 172 196 177 142 148
253 253 151 216 212 208 210 227 222 255 262 259 228 181 145 143 142 139 150 150 179 177 176 172 182 183 190 155 154 192 198 156 194 199 188 175 131 222 166 175 189 172 190
249 254 259 263 267 267 261 260 232 244 238 247 259 225 243 232 193 217 184 155 155 154 173 176 178 185 182 192 181 199 196 196 194 129 195 131 128 132 175 207 135 171 181
302 318 297 261 255 253 255 261 265 268 270 274 118 232 246 251 269 273 252 217 189 158 151 148 171 177 182 180 191 183 199 186 191 195 208 204 193 171 107 112 127 156 167
296 299 292 314 310 290 296 292 291 284 266 265 266 271 275 275 258 233 247 293 290 216 184 241 227 155 158 179 183 192 185 190 192 190 193 200 206 196 181 127 126 128 137
285 287 291 299 290 302 307 291 287 289 292 295 291 293 300 300 305 309 317 317 321 328 333 332 273 154 167 151 147 225 199 198 192 192 151 179 152 204 186 127 189 199 202
304 299 295 291 288 289 289 294 299 303 304 303 295 288 289 292 298 301 304 307 309 313 318 324 332 339 346 160 158 172 159 155 186 190 168 154 175 151 153 143 174 140 177

GFSGL_2pvu_pres_093.txt.gz
Presure
128 141 141 142 126 123 130 143 131 119 140 109 142 170 163 154 154 158 145 155 146 106 120 162 169 163 222 182 149 151 163 191 155 161 163 167 169 154 156 134 148 166 166
120 138 149 141 128 126 137 137 122 147 133 165 129 138 198 142 160 160 153 162 158 147 111 119 146 164 148 191 229 151 145 195 191 158 140 177 147 155 161 130 158 163 154
135 134 136 130 133 130 145 150 131 132 127 119 148 152 154 154 146 146 150 146 152 154 141 143 121 123 157 165 176 224 168 147 183 169 161 157 160 159 148 173 151 160 162
134 132 130 137 140 142 142 125 154 169 145 122 154 134 134 169 146 143 153 150 149 148 155 147 142 121 120 130 162 158 201 174 147 142 151 173 170 153 145 140 155 174 155
132 129 135 132 143 133 131 144 148 136 160 121 170 151 136 139 182 134 159 156 149 147 142 158 145 145 128 119 119 192 180 144 220 158 151 155 171 167 159 159 159 124 156
134 123 141 141 127 144 125 142 139 149 138 146 151 158 137 139 141 158 136 150 140 140 142 143 145 148 162 144 146 119 110 189 197 161 157 162 156 157 178 168 147 144 160
150 159 125 144 135 127 126 135 151 121 137 141 148 144 119 124 150 180 150 138 144 143 156 142 139 141 141 149 155 155 123 118 141 183 149 205 152 153 154 159 167 151 165
168 128 132 149 126 135 150 135 118 142 131 130 139 146 144 139 140 146 158 137 151 140 142 140 137 144 144 144 152 150 154 142 122 143 174 162 171 190 167 151 167 170 132
170 159 172 178 159 167 144 124 125 116 129 135 135 146 152 143 143 153 149 148 145 132 135 138 133 135 142 144 143 169 148 157 140 128 129 206 157 193 160 158 181 176 129
153 156 155 156 169 172 120 134 143 147 153 152 131 110 152 133 136 141 148 156 153 142 145 130 126 141 133 137 158 146 172 148 161 158 135 130 134 177 164 194 164 230 160
146 161 166 97 161 132 158 136 157 136 178 181 166 131 135 134 152 139 137 158 155 140 141 140 135 135 136 142 136 161 163 144 152 182 128 155 148 131 141 161 196 179 166
147 152 147 159 142 151 155 165 157 150 165 171 144 173 168 130 181 118 167 150 159 152 172 131 135 148 141 140 138 148 134 140 148 144 176 156 140 173 129 158 154 189 167
134 147 152 150 152 148 154 152 154 130 160 158 170 176 172 160 143 149 189 195 132 148 161 123 133 140 171 131 135 135 185 145 141 151 144 161 199 157 119 136 161 155 188
108 139 142 147 151 154 149 153 155 158 145 153 176 169 162 171 127 172 166 178 156 126 197 129 142 126 177 142 166 145 133 152 148 146 143 146 144 204 171 172 157 141 144
169 155 127 143 125 139 134 144 134 155 158 157 153 156 148 147 152 137 163 138 182 134 154 161 130 121 139 126 138 135 139 129 131 149 149 151 171 146 201 184 215 190 137
189 182 183 174 169 144 145 150 140 131 126 148 162 158 157 143 166 154 155 136 184 116 183 160 216 134 137 137 128 131 138 161 151 153 189 144 151 142 152 145 196 208 206
218 168 203 179 179 180 180 179 175 142 142 150 150 176 153 149 135 159 187 155 162 163 130 124 163 147 118 132 184 153 125 205 154 181 147 148 214 165 158 148 220 150 162
231 231 235 232 179 171 154 153 153 178 173 182 175 163 141 134 140 137 169 147 171 160 160 163 175 148 116 177 148 222 185 160 169 138 142 137 138 154 155 224 133 177 149
152 214 212 105 118 219 230 240 235 229 224 220 187 172 145 158 159 157 157 152 179 153 146 159 162 164 191 171 189 146 199 174 125 175 166 135 160 156 173 153 175 225 208
253 221 214 216 215 217 214 217 222 225 233 236 232 228 224 205 202 203 194 192 189 152 168 173 146 171 152 155 177 191 195 178 161 195 149 194 143 150 171 159 155 158 220
232 250 272 257 247 226 217 216 223 223 222 223 227 229 231 235 232 119 224 218 214 158 215 205 201 190 179 143 155 172 192 169 182 179 181 180 207 203 202 199 167 205 170
292 268 268 271 246 238 268 259 250 235 222 214 210 213 216 224 229 234 237 237 233 225 222 219 213 216 215 211 205 151 160 154 182 166 207 166 175 178 181 200 204 221 153
326 336 335 334 299 261 264 269 258 247 261 260 255 243 230 219 221 224 230 230 229 243 244 240 238 231 227 223 223 219 220 221 179 154 189 188 210 191 207 160 184 167 176
341 346 336 342 343 319 319 313 289 263 265 270 271 273 271 269 253 251 249 234 225 225 227 230 232 239 248 245 244 244 239 236 235 228 230 143 218 226 222 207 220 181 211
342 338 329 331 332 334 335 305 308 310 310 296 285 281 271 268 267 269 276 278 245 243 240 241 242 248 246 243 240 241 240 230 136 253 250 149 242 254 239 152 240 160 227
338 332 322 322 322 329 341 331 323 319 307 302 305 306 308 311 313 301 321 324 327 329 334 302 306 311 311 313 271 285 255 248 244 239 245 249 253 182 138 193 242 260 246

GFSGL_2pvu_pres_096.txt.gz
Presure
129 138 145 145 143 127 131 130 138 124 143 132 148 167 157 139 153 155 151 147 161 126 112 143 162 178 168 159 149 164 185 155 151 150 158 149 148 170 159 167 167 142 131
132 130 135 120 147 124 121 121 133 116 145 135 124 158 144 147 136 144 148 141 151 153 124 125 155 146 153 234 183 153 148 169 154 162 178 161 136 137 154 149 135 150 162
116 135 123 151 132 143 127 130 134 119 150 157 120 146 132 143 141 137 141 158 142 147 146 129 131 122 149 146 145 192 172 148 151 168 162 167 127 137 169 156 152 142 146
123 118 116 131 143 127 133 139 134 124 142 152 175 128 149 130 140 145 136 136 141 152 162 144 141 153 122 113 157 159 183 185 156 154 154 158 176 156 145 158 146 151 153
105 124 125 136 121 132 135 143 134 117 138 134 141 147 146 152 129 145 153 138 137 136 139 147 143 143 128 131 121 111 131 189 165 183 153 150 156 157 171 151 157 157 132
133 128 141 109 135 120 127 142 135 139 119 137 127 134 147 142 126 131 140 154 163 137 144 142 139 142 149 140 139 140 124 125 174 158 143 205 155 157 159 173 155 144 151
131 117 122 150 123 142 147 126 139 108 144 149 130 132 135 142 144 119 122 147 154 150 145 137 136 138 157 139 140 149 154 123 124 152 154 141 159 153 156 159 168 143 131
123 117 123 138 167 161 150 159 148 142 138 117 150 118 127 140 141 136 124 124 144 142 138 132 142 136 136 142 143 143 146 176 131 141 136 162 161 159 157 159 168 142 163
150 153 155 117 154 159 166 168 166 157 158 161 154 124 127 154 130 136 144 138 132 148 152 137 131 137 140 140 135 143 139 175 150 144 136 141 146 161 187 183 156 213 168
169 166 158 161 158 161 136 119 156 168 164 155 120 129 139 125 125 131 126 150 135 136 145 159 128 123 136 130 132 130 136 151 147 154 153 126 149 138 161 195 196 187 190
154 167 165 169 163 156 160 166 177 153 165 151 128 158 151 141 164 151 141 145 131 142 128 143 149 162 141 132 125 130 132 134 147 148 144 154 157 143 145 143 153 199 173
131 151 152 147 166 178 160 174 153 155 143 146 142 132 179 129 165 159 159 129 168 132 168 144 138 150 155 148 136 132 132 137 137 134 142 143 149 156 144 193 138 138 160
134 163 152 154 153 157 161 186 155 158 162 110 172 149 131 141 142 162 164 160 168 170 138 193 132 184 147 183 156 132 137 138 138 137 172 136 142 145 152 196 143 157 140
150 131 132 118 142 152 153 153 151 159 147 172 171 138 121 173 149 142 128 159 162 168 163 171 161 165 173 181 151 182 134 135 140 133 137 143 156 177 149 147 169 203 161
160 160 148 139 148 135 129 150 153 157 153 159 155 150 116 132 147 136 123 172 152 164 181 143 176 170 152 152 179 150 118 131 134 147 137 131 135 151 162 165 150 155 166
171 154 157 157 153 164 157 114 149 155 146 131 145 157 129 162 155 150 120 130 144 160 165 151 172 185 164 177 181 139 132 193 174 151 125 135 140 142 131 136 151 203 158
214 204 180 115 164 160 166 167 162 160 162 167 167 164 163 153 126 141 168 160 165 162 157 159 125 155 144 146 186 139 142 165 179 129 134 139 132 127 137 143 148 154 133
221 223 220 219 207 161 173 189 193 193 185 179 169 115 158 154 149 126 134 138 154 160 171 162 148 164 166 175 133 142 141 137 163 199 132 140 135 140 144 143 176 168 156
221 218 216 218 222 222 218 219 221 201 180 170 200 196 172 187 159 174 179 184 186 180 163 141 156 153 159 167 163 175 142 132 132 157 183 193 133 165 163 145 166 143 134
255 246 230 225 221 217 217 218 218 219 223 231 230 226 214 210 219 195 163 160 154 150 158 125 140 174 132 128 169 142 178 151 187 150 168 130 167 138 142 201 134 192 153
267 238 246 255 259 249 230 226 217 217 223 225 226 223 219 227 233 234 235 239 191 235 230 227 225 146 204 213 155 168 157 158 176 145 189 189 187 163 171 201 188 195 130
278 262 264 272 274 254 256 260 253 236 228 229 233 234 231 231 227 224 220 215 216 220 225 227 234 236 239 234 232 229 224 181 209 208 142 211 157 208 207 176 177 193 167
317 316 320 325 304 265 266 273 260 266 260 253 259 261 263 250 243 223 219 222 218 192 223 226 226 173 226 230 206 173 244 240 237 238 238 206 223 182 191 174 145 223 163
303 308 317 337 325 325 328 330 331 322 266 262 263 266 262 243 253 272 262 267 271 267 270 250 244 218 219 231 233 235 221 241 244 243 243 236 250 245 247 143 239 165 225
323 322 327 328 330 340 335 338 336 343 332 318 319 320 321 341 272 260 257 261 267 268 269 260 268 275 273 267 268 272 276 228 228 221 220 239 236 241 247 248 259 259 264
314 314 314 315 321 318 355 330 349 340 335 324 325 327 330 326 320 339 338 337 322 320 324 289 280 267 269 271 277 278 276 95 292 296 303 301 272 274 262 272 270 270 256

GFSGL_2pvu_pres_102.txt.gz
Presure
147 126 129 127 128 121 125 138 123 121 133 139 139 140 126 137 140 139 134 128 133 134 146 135 168 157 159 170 154 144 163 163 168 178 132 131 135 139 129 167 163 141 141
143 128 119 124 125 138 124 119 139 118 132 123 127 139 153 124 141 122 141 133 128 140 128 150 135 120 114 186 153 157 161 163 158 125 120 161 165 170 150 159 151 145 157
127 143 130 117 129 119 143 127 119 128 122 118 115 125 130 160 118 144 140 150 130 133 127 130 150 141 148 125 120 152 154 160 155 144 162 163 171 162 153 151 135 158 157
131 136 127 126 137 135 133 122 137 122 127 140 126 127 118 121 136 136 157 128 138 135 128 141 134 139 141 147 153 151 154 148 158 159 153 156 153 139 159 159 151 163 146
118 131 131 125 126 135 131 124 115 133 139 123 135 135 125 112 129 130 133 138 144 127 149 135 132 136 134 137 140 148 144 141 150 153 155 170 147 151 161 156 162 148 150
132 125 111 132 119 127 136 136 123 136 133 127 122 114 141 135 119 123 135 132 125 140 126 130 151 132 133 148 132 140 135 143 150 121 124 156 159 161 153 157 169 163 159
121 116 138 129 121 117 124 135 118 129 127 142 127 144 137 120 145 125 121 140 139 131 135 145 121 130 166 133 135 140 135 137 144 142 133 142 152 150 154 177 152 160 161
127 130 141 132 125 135 127 129 144 131 130 138 123 118 144 140 140 128 118 143 139 132 134 148 148 133 131 138 146 130 128 128 134 137 142 145 145 122 131 146 157 154 159
136 141 135 140 132 131 129 135 135 142 123 140 125 123 135 146 144 144 148 149 133 123 118 145 146 131 134 141 139 148 140 132 132 134 142 138 138 143 152 150 135 155 184
144 151 145 163 153 155 138 140 140 149 110 143 135 114 118 111 151 149 162 156 150 158 130 139 147 142 147 152 161 143 137 152 149 132 127 133 127 140 140 148 150 148 163
152 157 146 155 154 162 168 155 157 164 154 174 152 151 116 153 124 151 150 159 146 153 127 159 131 157 162 145 133 155 135 143 135 143 157 143 137 139 130 140 134 142 154
163 157 162 151 163 159 169 177 172 173 169 159 155 156 157 160 155 158 158 159 124 157 151 117 156 158 165 129 134 129 168 162 137 145 135 138 150 153 142 139 139 139 136
135 148 149 151 154 145 142 165 164 158 143 154 163 165 174 146 161 161 170 154 111 167 169 130 169 162 165 144 133 138 163 130 167 170 168 170 165 173 140 148 182 147 143
128 134 141 147 139 148 152 138 136 151 153 154 148 158 144 149 159 143 159 169 150 156 130 175 120 188 170 119 130 144 153 134 150 171 156 158 163 170 154 140 170 181 170
141 153 154 135 137 138 139 145 150 156 153 151 149 153 134 153 152 155 163 147 153 166 162 167 168 163 157 157 123 128 155 137 126 165 162 138 161 148 175 166 154 178 172
160 158 161 163 159 152 150 152 150 142 150 158 142 136 159 154 151 154 168 144 148 152 146 142 140 146 163 167 155 120 143 175 125 157 170 184 147 178 170 170 165 181 169
171 168 164 163 163 165 157 153 103 170 173 144 146 127 166 134 118 161 142 140 120 128 133 152 148 145 144 152 168 154 150 180 135 113 158 134 133 189 154 178 219 152 151
210 196 188 184 182 180 181 179 179 181 177 177 169 180 181 170 161 178 123 179 175 166 167 142 131 128 161 157 137 147 148 151 145 155 150 171 127 160 131 146 154 168 132
222 222 224 225 226 226 221 219 215 203 200 200 196 198 203 202 199 203 206 204 200 201 200 203 201 203 200 197 182 154 125 146 130 130 159 144 142 158 151 153 170 163 171
261 254 235 223 220 218 219 226 234 234 232 236 226 235 234 239 240 229 231 231 223 221 222 218 219 217 215 218 219 162 153 147 125 155 124 148 153 144 178 139 163 152 163
263 270 277 255 282 264 262 261 261 236 258 226 244 236 235 231 217 217 246 207 207 207 222 219 216 230 228 220 232 229 232 234 236 228 224 221 195 203 191 189 193 151 150
262 258 255 272 266 264 264 266 272 274 278 280 265 254 253 247 257 253 247 242 240 239 233 231 234 213 205 204 229 228 227 231 232 231 232 233 182 233 236 233 165 208 144
306 305 302 298 287 263 259 259 261 266 273 284 282 279 268 267 266 267 266 264 259 254 252 253 252 251 251 252 251 253 254 255 255 254 249 245 238 235 241 237 234 233 198
302 306 312 308 308 303 300 303 308 311 309 303 284 263 255 254 255 248 254 257 267 271 272 271 268 265 264 264 262 261 249 244 244 245 247 260 266 265 271 274 268 274 275
289 294 297 299 295 297 302 304 305 304 304 309 308 309 311 313 311 329 332 329 299 281 266 258 256 256 261 259 260 261 266 272 273 276 280 281 281 282 285 293 296 298 299
308 308 310 314 315 302 293 300 308 310 308 307 312 316 311 310 319 330 336 335 333 331 334 332 330 329 334 335 352 351 355 324 322 304 320 339 351 305 311 339 354 330 333

GFSGL_2pvu_pres_105.txt.gz
Presure
141 142 126 119 121 128 127 123 132 144 123 131 128 134 153 146 140 140 135 133 138 137 136 138 167 143 183 149 153 154 158 147 166 150 135 149 159 143 159 166 159 150 142
123 132 136 113 119 125 118 140 123 126 133 118 123 118 125 132 148 146 150 143 138 142 121 130 138 138 161 146 149 158 169 154 154 156 146 142 145 165 152 158 142 153 150
127 123 137 135 131 117 118 122 130 134 118 118 127 135 135 114 121 137 122 143 132 133 137 136 137 139 135 146 143 145 146 151 153 153 158 167 153 140 157 157 147 159 160
126 136 127 118 135 137 123 121 130 124 122 129 138 130 130 142 129 118 131 135 129 141 141 143 140 132 137 139 135 142 158 140 153 156 170 153 144 149 156 156 167 151 161
131 120 132 134 121 126 127 132 132 138 134 119 119 144 118 123 111 134 120 122 126 138 127 137 136 133 143 134 133 133 135 140 150 143 148 154 164 151 149 153 154 158 170
136 125 117 131 126 116 124 131 122 132 141 124 121 130 142 125 120 132 124 140 128 126 138 143 130 137 120 132 155 134 132 145 139 154 138 139 135 151 157 153 153 151 151
132 122 131 138 138 126 117 123 130 118 120 130 131 111 131 132 138 130 131 129 147 132 117 137 139 130 134 153 129 146 142 143 128 133 134 139 142 140 149 126 139 142 150
129 137 135 134 118 123 130 124 128 137 116 124 129 133 138 123 134 141 118 121 130 145 123 118 145 150 119 124 148 130 138 135 150 140 133 133 132 135 144 142 148 140 132
129 137 137 143 144 133 126 133 134 134 125 131 135 133 124 127 139 144 120 126 149 151 133 150 153 131 144 118 136 155 131 131 142 139 146 142 136 132 135 134 142 135 142
154 131 133 136 140 134 148 149 138 144 134 139 145 124 136 142 123 143 120 117 117 118 150 146 151 148 149 143 154 117 153 160 163 162 163 144 150 157 142 143 138 141 135
142 150 151 135 142 144 140 145 150 147 142 144 143 150 152 149 129 141 142 144 127 117 127 125 144 156 155 126 145 134 146 155 155 128 133 141 154 143 135 162 148 141 139
176 136 147 139 133 144 162 137 136 138 142 156 151 152 139 163 144 150 150 151 156 162 139 153 151 148 148 126 125 150 141 142 158 157 131 130 136 169 158 134 134 146 144
142 160 153 135 139 139 150 160 147 143 144 144 152 158 158 172 155 153 178 162 168 147 124 155 152 159 151 154 162 145 158 126 150 163 163 169 135 150 162 170 149 170 171
127 140 163 144 145 159 154 155 162 153 138 142 162 155 161 148 177 168 178 176 148 178 160 190 150 158 157 156 154 181 154 129 114 177 170 135 142 125 131 135 149 171 167
131 131 137 130 155 149 138 148 134 134 145 158 153 143 149 164 150 147 160 162 165 147 155 152 142 150 151 165 146 168 168 140 151 132 173 159 144 115 132 150 155 140 177
166 99 153 136 155 133 137 159 164 163 128 129 138 149 163 161 144 138 138 139 142 145 151 143 159 164 155 152 143 146 145 152 161 149 147 148 169 154 166 132 197 145 163
172 171 174 176 141 172 166 163 164 166 141 136 154 158 162 154 127 124 152 161 188 159 156 129 138 150 147 156 153 152 135 168 151 154 153 137 161 173 165 151 174 129 154
182 182 183 180 178 178 176 170 175 174 174 171 162 161 164 163 175 163 169 173 152 156 150 145 138 149 118 128 153 149 147 125 136 137 147 166 149 153 152 137 164 190 128
225 223 218 212 201 195 191 188 182 181 183 183 181 182 180 182 182 182 184 190 180 192 193 151 191 192 196 197 200 183 164 143 178 174 126 148 191 193 142 148 149 163 184
263 240 220 215 216 223 231 227 225 230 228 229 228 225 224 209 203 204 205 203 203 207 211 214 221 230 229 225 224 246 248 234 233 229 233 219 231 228 223 170 221 212 206
264 268 274 277 284 290 291 290 267 258 258 228 225 223 220 218 211 227 211 230 216 217 217 218 235 218 244 215 212 211 216 248 249 241 237 215 215 209 218 237 244 246 245
264 262 263 265 264 264 267 273 275 277 279 283 283 281 281 288 285 284 279 274 269 264 263 259 259 256 257 264 263 254 254 253 257 263 263 259 259 257 254 252 248 245 245
295 296 298 297 282 286 286 265 264 265 266 268 268 272 271 272 273 273 261 262 265 266 268 271 275 271 265 268 271 269 266 268 266 266 266 266 266 267 268 266 267 268 270
282 282 286 290 295 310 302 296 301 305 308 310 312 301 292 266 262 260 258 257 258 258 257 258 259 258 260 260 260 263 269 263 263 267 263 265 266 268 268 269 271 275 281
328 310 304 300 302 305 300 304 303 302 301 301 300 304 306 308 307 308 309 305 298 298 303 306 307 308 311 302 304 323 297 293 291 303 326 297 292 294 296 322 339 349 359
316 313 313 314 318 323 309 296 294 295 299 297 295 294 296 297 296 296 297 301 304 310 313 313 310 319 320 321 318 333 340 343 347 343 344 349 344 325 333 349 355 359 342

GFSGL_2pvu_pres_111.txt.gz
Presure
151 146 141 135 134 134 129 126 139 132 125 124 122 118 114 123 129 122 124 127 131 134 130 132 128 144 140 137 137 132 135 137 144 149 146 154 155 154 152 156 160 161 158
138 122 139 135 149 141 138 117 123 128 121 129 129 131 134 137 123 126 118 121 118 125 120 130 136 133 120 119 126 129 134 127 137 144 141 144 140 143 143 148 152 151 159
140 122 133 147 131 139 118 144 137 132 126 128 135 124 117 123 123 134 122 115 116 138 130 135 129 125 131 131 139 129 136 137 149 138 137 143 132 142 131 145 142 134 156
119 122 122 126 126 132 137 132 121 119 139 142 126 136 133 123 122 121 129 119 122 116 128 124 139 141 125 130 133 127 126 129 152 139 135 132 131 127 136 138 129 142 144
130 126 126 136 135 122 134 135 135 135 131 126 135 132 132 130 136 132 129 119 131 128 128 119 122 141 137 140 121 130 150 137 124 130 146 133 132 138 140 123 143 123 133
140 121 133 115 121 158 119 142 138 132 128 132 131 123 142 123 116 106 135 124 132 134 122 127 132 122 124 126 128 122 135 145 119 152 149 157 155 134 130 140 161 135 142
135 132 163 153 148 135 123 125 127 127 125 136 120 138 134 138 114 126 125 127 132 129 123 124 128 128 133 121 123 129 137 125 145 138 145 145 148 155 131 149 144 142 165
134 144 142 196 154 151 123 124 135 137 140 140 126 130 131 127 124 118 128 133 121 120 132 127 125 129 131 132 135 130 129 120 136 125 126 136 153 154 143 152 146 157 150
116 132 151 173 194 131 157 162 133 143 144 127 115 130 123 121 136 125 133 127 132 120 134 118 130 127 131 116 133 128 140 139 135 150 121 142 148 154 156 153 146 153 149
126 139 133 113 135 133 141 145 146 143 137 131 126 130 133 135 114 113 138 126 112 137 133 126 134 132 137 139 125 139 142 142 138 160 157 149 136 149 148 141 152 152 155
133 137 133 135 157 129 145 141 143 140 143 134 140 125 140 142 142 133 129 143 150 146 127 141 135 132 130 146 143 147 135 139 142 145 148 147 154 145 147 154 152 141 147
135 124 128 124 125 152 132 125 131 148 149 146 147 142 144 126 149 152 141 148 122 141 142 143 137 149 134 145 135 143 144 145 141 142 157 152 151 147 163 155 151 149 145
126 131 125 124 123 153 127 128 151 156 149 134 148 151 121 129 169 153 143 135 150 138 144 133 137 140 152 139 149 162 144 140 187 180 137 167 135 149 149 143 213 158 130
139 144 143 132 139 139 126 141 155 140 126 145 122 149 142 151 170 170 127 160 181 144 149 160 142 169 140 161 155 153 149 178 155 153 161 180 143 137 170 146 146 168 143
151 159 146 131 143 158 165 139 127 122 123 159 153 163 161 184 134 147 138 148 157 165 169 125 126 156 153 175 127 168 135 130 181 134 150 136 152 186 172 150 138 140 150
161 158 158 130 157 143 155 148 149 157 134 129 163 123 123 155 140 167 122 144 174 153 175 156 131 139 172 141 126 136 158 151 144 142 151 129 131 134 139 165 170 201 153
162 167 166 163 162 161 161 177 174 176 156 172 117 175 163 138 150 173 146 127 202 136 171 143 150 190 141 133 135 136 147 167 133 179 167 151 134 110 125 133 138 140 142
167 166 163 163 165 134 172 179 180 176 179 172 173 177 173 180 138 189 138 134 154 143 166 159 132 158 192 152 136 199 180 171 139 123 110 168 175 193 117 163 197 197 193
155 173 169 180 136 183 176 172 172 172 176 181 167 171 182 186 188 167 190 190 167 198 195 135 202 157 155 186 184 198 181 189 192 189 163 202 195 191 195 200 207 205 207
190 185 181 174 175 185 182 183 190 187 177 151 179 185 186 190 194 191 201 204 196 252 210 203 200 200 269 203 221 194 198 194 157 196 184 191 205 204 205 211 213 257 257
227 233 241 203 246 247 241 238 199 199 201 203 220 231 198 229 206 208 235 237 243 234 235 240 239 238 236 231 234 222 219 220 223 231 227 225 231 207 229 229 228 278 285
229 234 233 226 225 225 227 231 237 237 239 243 245 236 239 241 245 243 248 247 241 259 268 273 268 266 267 265 267 269 270 269 268 267 264 259 265 269 272 271 270 273 265
291 292 299 304 307 312 315 313 313 312 315 316 298 293 312 291 287 308 307 305 295 287 269 261 256 255 256 260 265 267 267 266 265 264 262 255 255 256 261 278 282 263 277
274 276 274 278 282 286 288 290 290 291 294 295 293 293 295 293 294 294 293 292 291 292 294 295 284 275 268 259 256 280 287 291 296 301 300 297 295 298 296 298 303 316 313
338 273 269 264 266 266 266 270 271 271 272 274 275 274 272 273 271 271 270 268 269 270 278 282 283 281 279 278 280 281 278 275 272 272 286 283 302 297 296 302 293 294 300
339 325 320 323 330 333 331 333 338 336 326 316 314 311 311 311 311 311 312 317 324 321 285 283 276 267 267 271 291 292 296 300 292 289 289 290 297 298 294 292 291 305 305

GFSGL_2pvu_pres_114.txt.gz
Presure
143 154 146 135 138 127 132 133 129 140 137 131 137 141 137 122 127 123 120 123 130 133 126 122 119 132 134 130 137 137 130 131 129 143 134 127 128 139 142 137 136 151 146
151 141 133 131 142 139 141 138 119 120 120 119 125 126 124 127 140 140 140 124 134 135 127 135 138 126 127 127 125 123 119 135 139 149 121 137 136 141 141 145 140 149 140
160 138 135 131 144 128 128 124 129 143 134 126 129 122 135 134 129 123 123 119 123 121 117 126 124 138 140 141 128 126 129 136 124 137 152 152 151 133 134 136 143 142 143
145 142 131 130 138 126 122 127 140 130 121 122 138 127 129 136 132 133 127 136 131 136 132 124 122 133 133 127 130 127 114 130 132 138 124 133 151 150 155 138 139 164 137
167 134 131 124 132 134 130 152 132 131 138 128 132 139 129 132 128 134 123 114 136 139 134 138 131 132 135 126 127 137 121 123 120 145 141 138 140 131 143 150 154 141 141
155 126 125 130 131 127 137 139 132 130 140 140 134 127 133 138 132 127 126 128 123 120 138 141 124 141 137 137 137 138 136 125 131 127 139 142 148 136 135 146 152 151 157
133 145 131 131 129 136 143 141 109 127 135 128 132 128 131 117 129 128 134 133 131 120 134 128 126 138 140 137 138 126 117 137 132 126 127 129 143 116 117 144 155 158 155
129 128 142 135 128 135 148 143 154 120 134 139 127 133 139 148 139 122 130 125 116 130 127 119 130 127 139 124 132 132 138 135 122 140 125 124 146 127 144 145 141 143 156
129 124 124 133 140 141 129 153 162 167 157 132 148 134 136 141 123 123 121 136 130 123 145 128 143 125 133 133 121 133 131 134 139 123 131 140 128 135 126 131 141 142 144
154 134 133 132 113 136 144 158 121 111 130 126 132 140 156 118 121 138 142 141 124 139 132 139 111 124 145 147 138 149 135 132 134 137 142 140 123 138 143 135 128 143 139
131 119 174 134 124 188 118 124 150 151 114 114 142 127 133 130 126 136 140 173 125 142 122 158 145 137 141 151 134 141 141 124 140 135 143 135 144 139 142 140 136 122 145
122 117 123 125 123 124 130 134 143 168 131 139 155 133 146 114 178 136 135 151 143 156 143 131 140 131 150 130 154 144 181 163 135 133 138 150 133 155 169 148 157 139 148
138 111 106 123 132 129 108 146 134 110 139 149 148 119 132 159 127 165 165 132 141 145 124 139 158 173 148 186 173 161 174 133 144 154 134 134 154 153 131 151 146 131 154
145 117 117 123 124 111 134 137 150 142 127 125 135 148 157 163 125 144 128 155 162 117 117 168 147 167 186 140 142 137 145 143 142 163 182 183 149 146 157 156 152 134 137
136 116 127 147 132 131 146 158 126 124 154 158 149 120 132 157 149 136 158 126 138 174 163 159 199 169 178 169 133 189 147 179 125 171 152 175 145 174 134 130 134 138 150
129 136 148 155 139 144 96 145 147 122 151 161 158 168 161 156 147 175 124 163 142 163 175 144 147 132 172 123 131 150 137 140 133 180 169 140 156 183 176 135 161 180 134
169 165 203 208 197 189 174 168 165 162 166 169 173 172 129 164 137 181 183 174 174 177 182 189 174 139 160 181 136 157 194 176 164 149 176 160 180 137 138 172 205 210 141
196 173 174 167 183 171 172 171 170 172 176 174 173 174 177 175 181 172 173 175 163 169 178 194 189 185 170 182 189 175 132 188 185 151 182 192 148 160 160 154 190 148 148
165 167 169 170 188 187 189 161 198 179 177 177 179 180 180 182 181 184 181 184 188 188 180 179 185 200 176 178 178 184 182 190 184 181 182 171 199 190 176 154 218 229 198
173 173 180 179 175 177 174 172 174 174 180 195 187 182 185 199 179 178 181 188 189 182 182 187 187 184 186 185 185 190 181 189 198 191 217 230 235 246 228 226 224 276 270
187 186 181 175 182 182 182 183 153 183 181 174 197 193 194 185 182 182 192 193 168 181 198 200 201 199 189 193 196 264 245 232 233 243 255 248 243 240 259 270 267 263 255
209 206 197 197 193 190 192 192 187 186 187 189 191 194 193 200 199 204 214 205 205 206 222 221 236 247 242 234 243 247 248 247 251 254 270 289 294 272 268 262 256 252 253
296 294 277 283 271 261 250 263 257 268 243 255 259 259 260 262 266 263 262 260 259 256 258 258 273 287 308 306 301 300 300 299 292 294 294 289 286 284 283 277 260 253 265
320 308 317 284 327 287 293 306 304 321 322 317 326 325 321 314 319 318 313 297 294 290 286 284 282 279 278 276 274 274 277 273 271 270 272 274 280 281 281 285 288 284 277
292 327 324 313 309 308 304 308 334 353 362 361 355 353 347 347 348 339 337 336 321 330 321 324 321 318 326 332 331 316 319 311 304 307 311 273 266 263 266 274 265 263 274
282 318 316 319 327 315 317 331 351 348 346 346 347 348 342 335 331 335 331 333 327 320 313 310 307 304 301 299 298 295 295 294 296 303 311 306 300 299 297 297 298 301 297

GFSGL_2pvu_pres_117.txt.gz
Presure
133 141 132 140 132 134 126 128 117 131 135 136 143 135 123 122 119 119 137 137 137 128 134 127 126 119 122 128 126 132 129 130 130 135 151 148 145 161 129 159 135 134 153
140 138 161 170 145 139 131 144 132 121 117 120 125 123 122 138 128 143 131 127 128 127 132 128 132 136 142 141 129 119 136 138 130 133 132 132 132 137 137 146 127 162 143
134 139 141 153 128 142 137 127 121 130 139 135 135 129 123 135 131 124 125 128 132 115 120 123 127 130 126 118 124 127 128 127 127 143 140 123 140 144 134 135 147 151 146
132 134 133 135 122 111 142 120 124 124 135 134 129 124 126 133 132 128 131 134 117 138 140 134 142 119 124 134 119 127 123 126 126 121 122 142 140 130 139 140 140 134 126
133 164 140 127 149 140 129 126 125 132 138 123 138 132 130 133 127 127 132 116 134 120 120 112 147 143 114 138 140 142 143 141 138 125 129 143 150 135 137 138 142 133 134
178 147 129 140 112 157 124 123 121 130 130 135 139 132 126 124 132 130 128 121 134 133 133 128 138 133 133 131 130 143 135 142 139 147 131 142 128 141 142 130 140 144 153
133 142 125 160 150 139 150 145 122 139 128 125 132 125 123 128 127 122 139 136 138 126 127 124 122 126 134 129 141 131 133 135 111 131 134 123 144 129 136 139 129 138 141
136 138 152 158 142 131 147 128 156 133 129 130 129 124 125 125 128 127 128 135 142 129 132 128 118 137 127 130 125 132 117 131 144 124 143 144 134 120 128 141 149 143 140
151 138 166 163 122 168 148 124 151 145 139 141 144 136 149 142 139 136 129 127 137 123 120 117 135 128 127 135 142 139 123 146 135 141 118 135 135 132 140 133 142 134 133
116 143 157 159 144 166 136 160 119 141 134 138 135 125 166 171 120 127 144 140 118 148 125 125 139 140 141 139 141 125 141 148 126 144 139 141 134 125 140 191 150 118 142
111 156 126 146 122 125 124 141 148 125 148 156 156 106 124 129 162 132 136 123 146 130 161 141 143 132 169 145 134 153 129 161 126 144 213 128 155 160 161 143 136 137 177
135 155 132 123 141 138 135 180 112 149 178 130 144 117 133 114 129 128 123 125 135 114 133 149 149 161 138 157 137 139 146 126 135 134 154 140 162 149 161 176 148 147 159
117 135 151 139 119 159 162 118 134 151 124 105 130 130 132 142 127 161 121 147 138 137 135 119 125 150 161 126 133 157 123 139 135 132 163 144 172 157 146 142 183 143 183
155 131 141 123 147 136 146 159 141 121 119 139 118 133 153 112 140 134 123 126 155 155 149 150 150 168 168 144 161 169 121 145 184 168 165 170 147 177 165 164 152 176 180
150 128 114 155 161 156 147 126 135 114 169 170 103 156 142 125 111 127 145 122 137 153 158 175 168 116 179 178 174 181 125 178 165 181 180 191 162 161 128 152 184 188 131
171 109 124 154 112 139 114 137 125 129 138 144 144 118 143 150 152 169 146 146 160 168 131 172 143 187 180 166 169 169 161 172 184 198 180 174 151 168 198 179 171 172 155
172 118 132 142 143 120 150 149 146 126 154 95 144 147 183 147 158 161 167 170 172 182 171 191 173 196 169 167 185 189 191 175 183 188 201 191 193 190 179 177 176 119 184
118 170 163 158 129 161 162 166 165 153 174 172 168 177 166 186 178 117 180 191 174 191 180 181 193 192 193 199 189 165 186 103 174 181 187 187 175 181 178 184 179 193 164
171 149 180 182 164 180 174 157 187 188 188 180 182 188 188 178 179 190 191 191 171 202 190 173 197 201 169 180 183 178 178 184 184 185 180 187 187 187 191 193 187 193 246
176 181 176 181 180 169 158 178 177 187 202 187 174 185 177 182 182 182 183 187 205 195 182 184 182 205 195 172 190 195 202 182 193 194 147 179 191 192 205 203 244 248 244
184 183 178 177 184 184 186 179 176 174 197 194 181 186 176 186 194 183 183 192 195 199 208 197 186 204 193 196 191 192 188 192 194 194 195 180 204 208 212 220 232 230 243
214 197 193 193 196 194 191 191 190 193 191 190 186 192 186 194 194 195 194 205 194 190 184 201 198 194 191 198 193 193 197 198 189 234 237 266 272 280 294 303 298 298 296
244 243 245 253 250 231 237 232 208 207 207 206 208 200 205 200 195 201 207 211 197 198 199 202 204 203 197 204 205 237 242 251 252 294 277 281 280 296 272 272 270 292 286
299 308 308 312 304 308 316 316 314 347 325 361 347 328 334 271 292 329 298 331 316 313 302 292 298 294 344 292 292 284 311 326 323 320 316 308 307 328 275 293 311 319 304
270 284 276 283 293 294 297 306 312 346 356 342 337 342 347 344 343 346 353 358 353 350 343 357 347 336 331 321 315 325 329 317 316 310 311 305 301 304 304 304 301 298 294
267 265 276 277 272 276 281 307 333 332 327 329 330 333 348 361 361 358 355 353 346 342 340 331 329 329 326 323 317 314 313 316 318 311 306 297 293 297 304 307 311 311 309

GFSGL_2pvu_pres_123.txt.gz
Presure
120 152 128 123 124 125 119 121 133 136 135 117 114 109 109 109 143 148 144 128 133 129 139 140 139 130 124 120 126 119 139 124 149 158 134 137 150 145 130 134 137 144 131
131 127 125 130 132 122 127 125 124 122 117 140 118 117 119 112 109 111 121 134 119 124 124 120 121 122 122 119 135 138 145 144 140 142 144 131 141 145 157 147 143 149 127
133 129 135 143 140 149 128 127 118 124 119 121 120 120 120 120 128 123 120 120 122 127 131 126 126 130 113 116 126 129 125 125 132 139 143 146 152 124 141 127 143 151 132
138 144 143 136 148 143 146 146 128 123 122 126 125 130 128 127 121 128 122 123 125 115 115 121 122 118 124 128 125 111 113 132 133 140 128 127 136 128 125 125 114 120 117
145 142 136 136 131 137 152 146 135 150 130 137 119 121 123 124 123 123 127 126 124 124 129 129 136 116 120 105 123 122 123 129 127 124 123 139 137 138 133 142 135 155 150
128 148 149 131 141 130 135 133 149 135 133 123 139 141 139 125 125 127 126 126 129 125 118 121 130 130 112 122 122 112 127 131 147 116 140 124 133 138 118 133 113 139 134
131 159 146 125 145 141 139 136 126 160 117 114 140 120 124 124 129 135 138 127 127 119 123 117 117 123 123 123 127 127 125 118 126 122 144 142 137 137 129 119 144 134 154
138 135 143 148 144 123 142 136 128 135 147 143 130 147 140 121 124 141 144 133 130 123 126 138 120 120 140 122 122 120 131 123 133 125 128 128 138 150 136 130 140 124 132
153 135 127 144 145 162 139 141 139 138 127 138 116 121 121 163 151 111 135 109 116 136 115 120 130 136 131 121 126 129 115 117 130 126 126 126 128 140 139 175 155 140 136
150 156 129 145 151 158 146 144 142 126 140 142 144 152 126 112 153 137 162 115 156 123 117 156 159 138 159 138 148 152 121 129 125 152 138 122 132 124 125 146 155 130 131
148 169 138 155 158 141 151 158 132 139 137 134 156 158 141 117 146 125 135 164 155 150 149 146 160 137 111 179 142 123 134 124 126 129 128 133 132 144 129 136 141 143 122
156 160 158 160 153 141 158 175 147 131 133 152 143 140 143 125 144 145 146 144 128 162 139 156 144 113 146 126 138 122 155 129 125 149 129 134 123 117 146 137 142 147 146
138 147 150 137 140 132 164 141 134 161 152 181 126 138 141 169 131 163 158 154 155 138 134 154 151 163 151 125 172 124 117 108 129 139 135 124 135 142 114 110 136 154 147
132 151 158 129 143 152 132 167 139 146 161 137 136 117 155 114 160 126 121 138 134 159 156 129 155 160 154 117 123 120 132 121 133 132 138 124 133 142 128 124 127 192 204
128 115 123 177 152 147 154 165 141 158 124 127 138 144 169 145 134 121 145 119 145 152 126 158 144 131 150 171 155 135 112 132 141 137 155 112 131 115 158 178 183 166 164
144 153 187 170 168 131 160 131 108 143 188 141 129 176 168 135 154 135 140 146 119 164 152 154 116 140 181 130 147 170 125 137 124 144 137 195 153 162 108 145 195 208 177
151 146 139 133 142 146 143 148 139 174 173 125 109 160 173 127 119 128 147 129 170 159 144 149 135 139 129 152 176 148 136 128 193 183 120 136 194 184 147 203 189 183 196
156 137 125 102 136 176 131 129 133 119 141 135 144 167 158 130 132 141 144 150 155 151 129 124 151 134 183 174 139 185 151 171 200 173 116 145 173 196 193 188 182 187 181
168 173 129 133 170 165 129 171 130 127 140 132 126 156 168 161 134 140 139 170 170 177 137 186 140 179 168 201 193 142 193 185 204 183 182 192 199 182 196 172 189 187 179
173 161 148 163 173 175 180 136 135 155 147 128 167 153 164 157 178 160 175 165 183 185 170 180 179 199 207 207 201 203 192 191 200 183 200 193 189 182 181 186 180 187 187
162 167 163 164 155 159 132 170 170 176 174 171 135 169 171 172 178 177 187 181 169 178 183 197 184 201 190 202 189 192 181 189 188 198 198 180 192 186 193 195 192 191 194
183 181 174 172 172 172 171 170 167 172 179 180 179 186 181 190 198 198 202 207 186 208 202 191 200 215 199 203 218 211 196 206 203 197 205 202 200 205 206 209 210 213 213
207 213 220 217 226 229 193 192 192 193 197 200 199 199 210 204 205 225 220 217 221 210 219 216 209 214 210 216 219 226 222 230 214 215 215 217 219 217 226 223 227 284 286
192 184 183 182 181 182 183 183 188 195 197 203 219 225 209 219 211 221 217 223 217 217 218 220 229 230 232 245 272 270 301 301 352 358 349 345 342 340 338 341 340 340 341
250 242 240 239 238 238 268 268 268 267 267 292 228 233 257 228 319 317 309 310 311 312 311 319 323 337 395 390 387 389 376 365 364 357 354 348 346 346 345 338 332 328 323
292 294 291 289 289 290 289 291 288 287 284 279 284 296 304 316 334 337 397 334 370 368 370 370 366 396 453 430 396 377 371 375 388 392 392 361 387 385 382 379 377 378 379